Location: Unspecified
(0.0000°N, 0.0000°E)
Time: 17:48:21
(UTC+00:00)

Altair - Visible Passes

Search period start: 18 January 2020 00:00
Search period end: 28 January 2020 00:00
Orbit: 1502 x 1682 km, 47.2° (Epoch: 17 January)

Date Brightness Start Highest point End Pass type
(mag) Time Alt. Az. Time Alt. Az. Time Alt. Az.
18 Jan 7.4 19:14:01 10° NW 19:23:37 89° NE 19:32:54 10° SE visible
18 Jan 9.6 21:22:48 10° W 21:28:19 17° SW 21:33:49 10° S visible
19 Jan 7.5 18:48:50 10° NW 18:58:27 81° NE 19:07:45 10° SE visible
19 Jan 9.5 20:56:51 10° W 21:03:07 20° SW 21:09:19 10° S visible
20 Jan 9.3 05:34:20 10° SSW 05:42:50 35° SE 05:51:33 10° ENE visible
20 Jan 7.5 18:23:43 10° NNW 18:33:19 72° NE 18:42:34 10° SE visible
20 Jan 9.4 20:31:01 10° W 20:37:54 23° SW 20:44:41 10° S visible
21 Jan 9.4 05:09:29 10° S 05:17:38 31° SE 05:25:57 10° ENE visible
21 Jan 9.3 20:05:18 10° W 20:12:42 26° SW 20:19:59 10° S visible
22 Jan 9.5 04:44:42 10° S 04:52:25 27° SE 05:00:18 10° ENE visible
22 Jan 9.2 19:39:39 10° WNW 19:47:30 29° SW 19:55:13 10° S visible
23 Jan 9.6 04:19:58 10° S 04:27:13 24° SE 04:34:35 10° E visible
23 Jan 9.1 19:14:04 10° WNW 19:22:19 33° SW 19:30:24 10° SSE visible
24 Jan 9.6 03:55:19 10° S 04:01:58 21° SE 04:08:45 10° E visible
24 Jan 9.0 18:48:33 10° WNW 18:57:09 37° SW 19:05:33 10° SSE visible
25 Jan 9.7 03:30:46 10° S 03:36:44 18° SE 03:42:48 10° E visible
25 Jan 7.6 05:31:53 10° SW 05:41:31 88° NW 05:51:31 10° NE visible
25 Jan 8.9 18:23:05 10° WNW 18:31:59 42° SW 18:40:39 10° SSE visible
26 Jan 9.8 03:06:20 10° SSE 03:11:29 16° SE 03:16:42 10° E visible
26 Jan 7.7 05:06:45 10° SW 05:16:20 84° SE 05:26:18 10° NE visible
27 Jan 9.8 02:42:09 10° SSE 02:46:13 13° SE 02:50:20 10° ESE visible
27 Jan 7.7 04:41:40 10° SW 04:51:11 75° SE 05:01:04 10° NE visible
